Find OneWeb SL0211

NORAD ID: 48767 Int'l Des: 2021-045 Owner: ONEWEBN Country: UK Constellation: oneweb operational
LEOCIRCULARPOLARONEWEB_TYPE

Live Position

Loading 3D Globe...

About OneWeb SL0211

Description loading...

Upcoming Passes

Passes for default location (London). Set your location on the main map for personalized predictions.

Altitude History

Loading altitude history...

Two-Line Element Set

1 48767U 21045A 26127.82433738 .00000092 00000-0 20697-3 0 9998
2 48767 87.8971 267.1364 0001347 81.4289 278.6994 13.16194351239137
Epoch: May 7, 2026 • Age: 8 hours

Current Status

Altitude 1205.5 km
Velocity 7.26 km/s
Sub-Earth Point 45.76°N, 6.45°W
Launch Date May 28, 2021
Age 4.9 years
Type internet

Technical Details

Classification Payload
Mass 148.00 kg
Dry Mass 140.00 kg
Total Mass 148.00 kg
Length 1.30 m
Diameter 1.00 m
Span 5.00 m
Shape Trapezoid+2 pan
Manufacturer ONEWUS
Bus Type ARROW
Phase Status In Orbit
Owner/State ONEWEBN/UK

Most Searched